Regional Weather Roundup
Issued by NWS State College, PA

Home | Current Version | Previous Version | Text Only | Print | Product List | Glossary On
Versions: 1 2 3 4 5 6 7 8 9 10 11 12 13 14 15 16 17 18 19 20 21 22 23 24 25 26 27 28 29 30 31 32 33 34 35 36 37 38 39 40 41 42 43 44 45 46 47 48 49 50
000
ASUS41 KCTP 270210
RWRCTP

REGIONAL WEATHER ROUNDUP
NATIONAL WEATHER SERVICE STATE COLLEGE PA
1000 PM EDT FRI MAY 26 2017

Note: "fair" indicates few or no clouds below 12,000 feet with no
significant weather and/or obstructions to visibility.

* = STATION THAT DOES NOT REPORT PRECIPITATION /E.G. RAIN...SNOW...ETC/
    THUNDER OR FOG.

PAZ002>004-007>009-013>016-020>023-029>032-270300-
WESTERN PENNSYLVANIA

CITY           SKY/WX    TMP DP  RH WIND       PRES   REMARKS
ERIE           CLOUDY    57  52  83 SW5       29.90R
MEADVILLE      MOCLDY    55  53  93 CALM      29.92R
FRANKLIN*      CLOUDY    55  50  82 NW3       29.94R
NEW CASTLE     MOCLDY    57  52  83 CALM      29.93R
BEAVER COUNTY  NOT AVBL
BUTLER*        CLEAR     54  50  87 CALM      29.94R
PITTSBURGH INT MOCLDY    62  54  74 NW5       29.92R
PITTSBURGH     CLOUDY    61  51  70 N5        29.92R
INDIANA*       CLOUDY    55  54  94 CALM      29.95R
LATROBE        MOCLDY    61  54  77 CALM      29.93R
WASHINGTON CO* CLOUDY    57  54  88 CALM      29.95R
$$

PAZ004>006-010>012-017>019-024>028-033>037-041-042-045-046-049>053-270300-
CENTRAL PENNSYLVANIA

CITY           SKY/WX    TMP DP  RH WIND       PRES   REMARKS
BRADFORD       CLOUDY    53  52  96 W6        29.91R
DUBOIS         CLOUDY    55  50  83 NW6       29.91R
CLEARFIELD     CLOUDY    57  53  86 NW7       29.92R
JOHNSTOWN      MOCLDY    55  52  89 NW5       29.93R
ALTOONA        CLEAR     59  51  75 CALM      29.93R
STATE COLLEGE  NOT AVBL
WILLIAMSPORT   MOCLDY    62  53  72 W8        29.85R
SELINSGROVE    CLEAR     60  52  74 NW6       29.87R
FT INDIANTOWN  CLEAR     64  51  63 NW7G17    29.86R
CAPITAL CITY   LGT RAIN  67  49  52 W12       29.87R
HARRISBURG     PTCLDY    63  52  67 NW8       29.86R
YORK           MOCLDY    64  54  69 W5        29.87R
$$

PAZ038>040-043-044-047-048-054-055-060>062-067>071-270300-
EASTERN PENNSYLVANIA

CITY           SKY/WX    TMP DP  RH WIND       PRES   REMARKS
SCRANTON       CLOUDY    61  55  81 NW7       29.84R
MOUNT POCONO   LGT RAIN  56  54  93 NW9       29.85R
ALLENTOWN      CLOUDY    64  55  72 NW7       29.84R
QUAKERTOWN*    MOCLDY    64  55  72 NW8       29.85R
READING        CLOUDY    65  56  72 NW6       29.84R
LANCASTER      PTCLDY    64  53  67 NW12      29.86R
COATESVILLE    CLOUDY    64  54  68 NW13      29.87R
POTTSTOWN      CLOUDY    63  55  75 NW7       29.86R
BLUE BELL      PTCLDY    64  54  68 NW13G23   29.85R
DOYLESTOWN     CLOUDY    65  55  70 NW12      29.82R
WILLOW GROVE   NOT AVBL
NORTH PHILA    CLOUDY    69  54  58 NW8G20    29.83R
PHILADELPHIA   MOCLDY    70  53  54 W13       29.83R
$$




USA.gov is the U.S. government's official web portal to all federal, state and local government web resources and services.